sat.trackr.live / text

‹ back to catalog

STARLINK-3240

NORAD 49728 · 2021-115E

PAYLOAD ACTIVE UNKNOWN

§ Identity

Operator
Country
US
Launch date
2021-12-02
Launch site
AFETR
Launch vehicle
Mass (kg)
RCS (m²)

Purposes: comms

External: N2YO · Heavens-Above · Gunter

§ Orbital elements

Epoch: 2026-09-19T17:56:25.823904Z

Period
93.85 min
Inclination
53.1610°
Eccentricity
0.0000970
Mean motion
15.34399390 rev/d
Perigee alt
462.0 km
Apogee alt
463.4 km
Semi-major
6,840.8 km
B*
-4.5797e-6
RAAN
352.8952°
Arg perigee
87.1178°
Mean anomaly
272.9935°
Rev number
26,489

§ Raw data

STARLINK-32401 49728U 21115E   26262.74752111 -.00000531  00000+0 -45797-5 0  99932 49728  53.1610 352.8952 0000970  87.1178 272.9935 15.34399390264892

JSON: /api/v1/satellites/49728 · /tle

For live sub-satellite position, see the globe view (requires WebGL).

§ Visibility from observer

Set your observer location to see the next 7 days of passes ≥ 10°. The values pass through the URL so the page stays shareable.

No JS? Fill the form by hand. The geolocation button needs JavaScript.